Wind_Speed
37 37 37 39 40 42 45 47 49 50 51 53 53 54 54 53 53 53 53 54 54 54 54 53 54 54 53 53 54 54 54 54 54 54 55 55 56 56 56 56 57 57 57 57 57 57 57 57 58 58 58 59 60 60 61 62 63 64 64 64 63 63 62 62 60 59 57 55 53 51 50 49 47 46 45 45 45 46 46 47 47 49 50 51 53 54 56 57
38 38 38 38 39 40 43 45 47 50 51 53 54 55 55 55 55 54 54 54 54 54 54 53 53 52 52 53 53 53 53 53 54 54 55 55 56 56 56 56 56 56 56 56 56 56 56 56 57 57 58 59 60 60 61 61 61 61 61 61 60 60 59 57 55 54 52 51 49 47 47 45 44 44 44 45 45 46 47 48 49 50 52 53 54 56 58 59
36 36 36 36 37 38 40 42 44 47 49 51 53 54 55 55 56 56 55 55 55 54 54 53 52 52 52 52 52 52 52 53 53 53 54 55 55 55 55 55 55 55 55 55 55 55 56 56 57 57 58 59 59 59 59 59 58 58 58 58 57 56 54 53 51 50 49 48 46 45 44 43 43 43 44 45 46 47 48 49 51 52 53 55 57 58 60 61
32 33 33 34 34 35 36 37 39 41 44 47 49 50 51 52 54 55 55 55 56 56 55 54 53 52 51 51 51 52 52 52 53 53 54 55 55 54 54 54 54 54 54 54 54 55 55 56 57 57 57 57 57 57 56 55 55 56 56 55 53 52 50 49 48 47 46 45 43 43 42 42 42 43 44 46 47 48 49 51 52 54 55 57 58 60 61 62
30 30 31 31 32 32 33 34 35 36 39 41 42 43 44 46 49 50 52 53 54 55 54 54 53 53 52 52 52 52 52 53 53 54 54 54 54 54 54 53 53 53 53 53 53 53 54 55 55 56 55 55 54 54 53 54 54 53 53 51 50 49 48 47 45 44 43 42 41 42 43 43 44 44 45 47 48 49 51 52 53 55 57 58 60 61 62 63
29 29 30 30 30 31 31 32 32 33 35 35 35 36 37 39 42 44 46 47 49 49 50 51 51 51 51 51 51 52 52 53 53 54 54 53 53 52 52 51 51 51 51 51 51 52 53 53 53 53 53 52 52 52 53 54 53 51 49 49 48 46 45 44 42 41 41 41 41 42 44 45 45 46 47 48 49 51 52 53 55 57 58 60 61 62 62 63
27 28 29 29 30 30 31 31 32 33 33 32 31 31 32 33 35 37 39 41 42 43 44 45 46 47 48 48 49 50 50 51 51 51 51 50 50 50 49 49 49 49 49 49 49 50 51 51 51 52 52 52 52 53 54 53 50 48 46 45 44 43 42 41 40 39 40 41 42 43 45 46 47 47 48 50 51 52 53 55 57 59 60 61 61 62 62 63
26 27 28 28 29 30 30 31 31 32 31 29 28 29 29 30 30 32 33 35 36 38 39 40 41 42 43 44 45 46 46 46 46 46 46 46 47 46 46 46 46 46 46 47 48 49 49 50 51 51 52 52 53 53 52 49 47 45 43 42 40 39 38 38 39 39 41 42 43 44 46 48 49 49 50 51 52 54 55 57 59 60 61 61 61 61 62 62
25 26 26 27 28 29 30 30 31 32 30 28 27 28 28 28 28 29 30 32 33 34 36 37 38 39 39 40 40 41 41 41 42 42 43 43 43 42 42 43 43 44 45 46 47 48 49 50 51 52 53 53 53 50 48 45 43 42 40 38 37 36 36 37 39 41 42 43 45 46 47 49 50 51 52 53 54 55 57 59 60 60 60 60 61 61 62 62
25 25 26 27 28 29 29 30 31 31 29 27 27 28 28 28 28 28 28 30 32 33 34 35 36 36 36 36 37 37 38 38 38 38 38 39 40 40 41 42 43 44 45 46 47 49 50 51 52 53 52 51 48 45 43 41 40 39 37 36 35 35 36 38 40 41 43 44 46 47 48 50 52 53 54 55 56 57 59 60 60 60 60 61 61 62 62 63
25 25 26 27 28 29 29 29 30 30 28 28 28 28 28 28 28 28 28 29 30 32 32 33 33 33 32 32 32 32 33 34 34 35 36 38 39 40 41 42 43 44 46 47 49 50 51 51 50 49 47 44 42 41 39 38 37 36 35 35 35 36 37 39 40 42 44 46 46 48 49 50 52 53 54 56 57 59 59 60 60 60 61 62 62 63 64 65
25 26 27 29 29 29 28 29 30 29 29 29 29 28 28 28 27 27 27 28 29 29 28 27 26 26 27 28 29 30 31 31 32 34 35 37 39 40 42 43 45 46 48 48 48 48 47 45 44 42 41 40 38 37 36 35 34 34 35 35 37 37 39 40 42 43 45 47 48 49 51 51 52 53 55 57 58 59 59 59 60 61 62 63 64 65 66 67
26 27 28 29 30 30 29 30 31 31 30 30 29 28 27 26 24 24 24 23 21 20 19 20 21 23 25 27 29 30 31 32 33 35 36 38 40 41 43 45 47 47 47 46 44 43 41 40 39 38 38 36 35 34 33 33 33 34 35 36 38 39 41 42 44 44 45 47 50 51 52 51 52 54 56 57 58 58 59 60 61 63 64 65 66 67 68 69
26 28 29 30 31 31 30 31 32 32 32 31 29 27 25 23 22 21 18 16 16 18 20 23 25 26 28 29 30 31 33 34 36 37 39 40 42 44 45 46 46 46 44 42 41 39 37 37 37 36 35 34 33 32 32 33 33 34 36 37 39 41 43 44 45 45 46 48 50 51 51 52 53 55 56 57 57 58 59 61 63 64 65 67 68 68 69 70
27 29 30 31 32 32 32 32 32 32 32 30 28 25 23 22 22 18 16 18 22 26 29 30 30 31 32 32 33 35 37 37 38 40 41 42 44 46 46 45 44 42 41 39 37 36 36 36 35 34 33 32 31 31 32 32 34 35 37 39 41 42 44 45 46 48 48 48 49 49 51 53 55 57 57 58 58 59 61 63 64 66 67 68 69 70 70 71
29 30 31 32 33 33 32 31 30 30 29 27 25 22 19 19 21 21 24 28 30 31 33 33 33 34 34 35 36 38 39 40 41 42 43 45 45 45 43 42 40 38 36 35 35 35 35 35 34 32 31 31 31 31 32 33 35 36 38 40 41 43 45 46 48 49 49 48 49 50 51 53 56 58 59 59 60 61 64 65 66 67 69 70 70 71 72 73
29 31 32 32 33 31 30 28 27 26 26 26 24 22 20 20 22 26 32 35 34 34 35 35 35 35 35 35 37 38 40 41 42 43 44 44 43 41 41 39 36 34 34 35 35 35 35 34 32 31 30 31 31 32 33 34 36 38 40 41 43 44 46 47 48 49 50 50 51 53 54 55 57 59 60 61 62 64 66 67 68 69 70 71 72 73 74 75
29 30 31 30 29 27 25 24 23 23 24 24 24 24 25 28 31 33 35 36 36 36 35 35 35 35 35 36 37 39 39 40 40 40 41 41 41 42 40 36 33 33 34 35 36 35 34 32 31 30 30 30 31 32 34 36 38 39 41 43 44 45 46 48 49 50 52 52 53 55 57 58 59 61 62 63 64 66 68 69 70 71 72 73 74 74 75 76
28 28 27 26 24 22 21 21 20 21 22 22 23 24 26 29 33 34 33 33 33 33 33 32 33 33 34 35 36 36 36 37 38 38 40 42 42 40 36 32 32 33 35 35 35 33 31 30 29 29 30 31 32 34 36 37 39 41 42 44 46 47 48 49 51 52 53 55 56 58 60 61 62 63 64 65 67 69 71 72 72 73 74 75 75 76 77 77
26 26 23 22 20 18 19 19 20 20 20 18 18 19 21 23 25 26 26 26 27 29 30 30 31 32 32 33 34 34 36 37 39 41 42 42 38 34 32 32 33 34 35 34 33 31 30 29 29 30 30 31 33 35 36 38 39 41 43 45 47 48 50 51 52 54 55 57 59 61 64 64 64 65 67 68 69 71 72 73 74 75 76 76 77 77 77 77
23 22 20 19 18 16 18 20 20 18 17 19 19 19 21 23 24 25 26 26 28 29 30 30 30 31 32 33 34 36 38 40 41 42 39 35 32 31 32 33 34 35 34 32 31 30 29 29 30 30 31 32 34 35 37 39 41 43 45 47 48 50 52 53 54 55 57 58 61 63 66 66 66 67 69 70 71 73 74 74 75 76 77 78 78 78 78 78
20 20 18 17 17 17 18 19 17 15 16 20 25 26 25 25 26 26 28 29 29 30 30 31 31 32 33 35 37 38 41 42 40 36 33 31 31 33 34 34 35 34 32 31 30 29 29 30 30 31 32 33 35 37 38 40 42 44 46 48 50 51 53 55 56 57 58 59 62 64 66 68 68 69 71 72 73 73 74 75 76 77 78 78 78 78 79 78
18 18 16 16 17 19 20 21 20 19 21 23 25 30 30 29 29 29 30 31 31 31 32 32 33 34 36 37 39 41 41 38 33 31 30 31 33 34 35 35 34 32 30 30 29 29 30 30 31 32 33 35 36 38 40 42 44 46 48 49 51 52 54 56 58 59 60 61 62 63 66 70 70 70 72 73 73 74 75 76 77 78 79 79 79 79 79 79
18 17 16 16 18 21 22 24 24 26 29 28 27 31 33 34 35 34 34 35 35 35 35 36 37 38 38 39 40 39 36 32 29 30 31 32 34 35 35 35 32 30 29 29 29 30 31 31 32 33 35 36 38 40 42 44 46 47 49 51 52 54 55 57 59 62 63 63 64 63 64 70 72 71 73 74 74 75 76 77 78 78 79 79 79 79 79 79
19 17 15 16 19 22 24 25 26 28 32 33 30 31 34 36 38 39 38 38 38 39 39 39 39 39 39 39 37 33 30 29 30 31 32 33 35 36 35 33 31 29 29 29 30 31 32 32 33 35 36 38 40 42 44 45 47 49 51 52 54 56 57 59 60 62 64 64 65 65 65 68 72 73 73 75 75 76 77 77 78 79 79 79 79 79 79 79
19 17 15 16 18 22 25 26 28 31 34 36 35 34 35 37 38 39 39 39 39 39 39 38 38 37 37 34 31 29 29 30 31 32 33 35 35 35 33 32 30 29 29 30 31 32 33 34 35 36 38 40 42 44 46 47 49 50 52 54 55 57 58 60 61 62 64 65 66 68 67 68 72 74 74 76 76 77 77 78 78 79 79 79 79 79 80 80
18 18 15 15 17 21 26 28 30 32 34 37 38 37 37 38 38 38 38 38 38 37 37 37 36 34 32 30 28 28 29 30 32 33 34 36 36 34 32 30 30 29 30 31 32 33 34 35 37 38 39 41 43 45 47 49 51 52 53 55 56 58 59 60 62 63 65 67 67 69 70 69 72 74 75 77 78 78 78 78 78 78 78 79 79 80 80 80
17 19 17 15 16 20 26 30 32 33 35 37 39 39 40 39 37 37 37 37 37 37 37 36 34 31 29 29 29 30 30 31 33 34 36 37 36 33 31 31 30 30 31 32 33 34 35 37 38 40 41 43 45 47 49 51 52 53 54 55 57 58 60 61 62 64 66 68 69 71 72 72 73 75 76 77 78 78 78 79 78 78 78 79 80 81 81 81
16 18 19 17 16 19 24 30 33 34 36 38 40 41 40 37 35 36 37 37 37 37 37 35 33 31 31 31 30 31 31 32 34 36 37 37 35 32 32 31 31 31 32 32 34 35 37 38 40 41 43 45 47 48 50 51 53 54 55 56 57 59 60 62 64 65 67 70 71 72 75 74 74 76 77 77 77 77 77 78 78 78 79 81 81 81 81 81
16 17 20 20 17 18 22 28 33 35 36 37 37 38 38 37 37 37 37 37 37 37 37 35 33 33 32 32 32 32 32 33 35 37 38 36 33 32 32 31 31 32 32 33 35 36 38 39 41 43 44 46 47 49 51 52 53 55 56 57 59 60 61 63 65 66 68 71 73 74 76 77 76 75 76 76 76 76 76 77 78 79 81 82 82 82 82 82
18 17 19 21 20 19 20 25 31 34 36 34 33 35 38 40 40 40 39 38 38 37 36 35 34 34 33 33 32 33 33 35 37 39 38 35 33 32 32 32 32 32 33 34 35 37 38 40 41 43 45 46 48 49 51 53 54 56 57 58 60 61 63 64 65 66 68 71 74 76 77 78 77 74 74 75 75 75 76 77 79 81 83 84 83 83 82 81
18 18 20 21 22 20 20 23 27 31 33 33 32 34 37 39 39 39 38 37 36 36 35 34 35 34 33 32 33 34 35 37 39 39 36 35 34 33 32 32 32 33 34 35 36 37 39 41 42 44 45 47 49 50 52 54 55 57 58 60 61 62 63 64 65 66 68 71 74 76 76 77 77 74 74 74 75 76 77 79 81 82 83 84 84 83 80 78
18 19 20 21 22 22 21 21 24 28 30 30 30 32 32 32 32 32 33 34 35 35 34 34 34 33 32 32 34 36 37 39 40 39 36 35 34 33 33 32 33 34 35 36 37 38 40 42 44 45 46 48 50 52 53 55 56 58 60 62 63 63 63 64 66 67 68 69 72 74 75 76 75 74 74 75 76 78 79 81 83 83 84 85 84 81 77 75
18 19 20 21 21 21 21 21 22 26 28 29 30 30 30 29 28 29 30 32 33 33 34 33 32 32 32 34 36 38 39 41 41 38 36 36 35 34 33 33 34 35 36 36 37 39 41 43 45 46 48 50 51 53 55 56 58 60 62 63 64 65 67 68 68 69 68 67 69 72 74 77 76 75 76 77 78 80 81 82 83 84 84 83 80 77 75 73
18 18 18 19 20 20 21 21 21 24 27 29 30 31 30 29 29 29 30 31 32 32 33 32 31 32 34 36 38 39 41 42 41 38 37 36 35 35 34 34 36 36 37 38 39 40 42 44 47 49 50 52 53 55 57 58 60 62 64 65 65 67 69 70 70 71 69 66 67 70 73 78 79 77 78 79 79 81 82 82 83 82 81 78 76 75 73 70
17 17 17 18 18 19 20 22 22 23 26 28 30 31 31 31 31 31 31 31 31 32 32 32 33 35 37 38 39 42 43 42 40 38 37 37 36 36 36 36 37 38 39 40 40 42 43 45 49 51 52 54 55 57 59 60 62 63 65 67 68 69 70 71 70 71 71 69 67 69 72 80 83 78 79 80 79 81 82 80 80 78 76 74 73 73 70 65
17 16 16 17 17 18 19 22 24 25 26 27 29 30 31 32 32 32 32 31 31 31 32 34 36 37 38 40 42 44 43 40 38 38 38 37 36 37 37 38 39 39 41 42 43 44 45 47 51 53 54 55 57 59 61 63 64 65 67 69 70 70 70 71 71 71 73 72 70 70 73 81 85 79 78 80 78 78 78 76 76 75 73 72 70 69 65 60
16 15 15 16 16 17 18 21 24 26 28 28 28 29 30 32 33 33 33 32 32 33 35 36 38 38 40 42 44 43 40 38 39 39 38 38 37 38 38 39 40 41 43 44 45 46 47 48 52 56 57 57 59 61 63 65 66 67 69 71 72 72 71 71 71 73 76 76 74 72 72 82 87 80 77 77 74 74 74 73 74 73 71 69 66 65 61 57
15 15 15 15 16 17 18 20 23 26 29 29 29 29 30 32 33 33 33 34 35 36 37 38 39 41 43 43 42 40 39 39 39 38 38 38 38 39 40 41 42 43 45 46 47 48 49 50 52 57 59 60 61 64 65 66 68 69 72 73 74 74 73 73 73 76 79 80 80 74 69 80 87 79 76 75 70 72 72 71 72 71 69 66 62 61 59 58
14 14 14 14 15 16 17 18 21 25 28 30 30 31 32 33 33 34 34 35 37 38 39 41 42 43 43 40 38 38 39 39 39 38 38 39 39 40 41 43 44 45 47 48 49 50 51 52 54 58 61 62 63 66 67 68 69 71 73 75 76 76 76 76 75 77 81 82 83 75 67 75 83 77 75 74 71 72 73 70 69 68 65 61 58 59 60 61
13 13 13 13 13 14 15 17 19 23 26 29 31 32 33 34 35 35 36 37 39 40 41 42 41 40 38 38 38 39 39 39 39 38 38 39 40 41 43 44 45 47 48 49 51 52 53 54 56 59 62 63 65 67 68 69 70 72 73 76 78 78 79 79 76 78 80 80 82 75 66 71 78 76 76 75 72 73 73 68 66 64 60 57 57 60 63 64
12 12 11 11 12 12 13 14 17 19 23 27 30 32 34 35 36 37 38 39 39 40 39 38 37 36 37 38 39 39 38 38 39 39 39 41 42 43 44 46 47 48 49 51 52 54 55 56 57 59 62 65 67 68 69 70 71 72 75 78 80 81 82 81 79 77 77 77 79 74 66 67 74 77 77 75 72 72 71 67 63 60 58 57 58 62 65 66
10 10 10 10 11 11 12 13 14 16 19 22 25 28 30 31 33 34 34 35 35 34 34 34 35 36 38 38 38 38 37 38 39 40 41 42 43 44 46 47 48 49 51 52 53 55 56 57 59 60 62 65 68 70 70 70 72 74 77 81 82 83 83 81 79 77 76 76 76 75 69 66 72 78 77 74 71 70 69 66 62 59 59 59 60 64 67 70
9 9 9 10 10 11 12 13 14 16 18 19 21 23 25 27 28 29 30 31 32 32 34 35 36 37 37 37 37 37 37 37 39 41 43 43 45 46 47 48 50 51 52 53 55 56 57 59 61 61 61 63 67 70 71 72 73 76 79 82 84 84 83 80 78 77 76 75 74 76 71 65 70 77 75 72 69 66 66 65 63 63 63 63 63 66 70 74
8 9 9 10 11 11 12 14 15 17 18 20 21 23 24 25 27 28 30 31 32 34 35 36 36 36 36 36 36 37 38 38 40 42 44 45 46 48 49 50 51 52 54 55 56 58 58 60 63 63 63 64 66 69 70 71 73 76 80 83 84 83 80 78 77 76 76 73 72 75 72 64 68 74 71 69 67 63 63 65 66 68 69 67 67 69 74 78
9 10 11 11 12 13 14 16 17 19 20 21 22 24 25 27 29 30 31 32 34 35 35 35 34 34 35 35 36 38 39 40 41 43 45 46 47 49 50 51 53 54 56 57 58 59 59 61 65 66 66 68 70 71 71 71 73 76 80 82 82 79 76 75 75 74 74 72 69 71 71 65 65 67 63 62 61 60 62 65 68 71 72 72 72 74 78 81
10 11 12 13 14 15 16 18 19 21 22 23 25 26 28 29 30 31 32 33 33 33 33 33 33 34 35 36 37 39 40 42 43 44 45 47 48 50 51 53 54 56 57 58 59 60 60 62 65 66 68 71 73 74 74 73 73 75 79 80 78 76 73 72 73 72 72 72 68 67 68 65 61 59 57 58 59 60 63 67 70 72 74 76 76 78 81 84
12 13 14 15 16 18 19 20 22 23 24 26 27 28 29 30 31 31 31 31 31 32 32 33 34 35 36 38 39 40 42 43 45 46 47 49 50 51 53 54 56 57 59 60 61 62 62 62 65 66 67 72 76 75 74 73 72 74 77 77 74 72 71 70 70 72 72 70 65 62 61 62 60 57 58 61 63 63 65 68 72 75 77 79 80 81 84 86
14 14 16 17 18 20 21 22 24 25 26 27 27 28 29 29 30 30 30 31 31 31 32 34 35 36 38 39 40 41 43 44 46 47 49 50 52 53 54 56 58 59 60 62 63 64 63 62 64 64 65 71 76 74 72 71 70 72 75 75 72 70 70 69 70 70 68 63 60 58 57 59 61 62 62 64 66 67 69 72 76 79 80 82 83 85 87 89
15 16 18 19 20 22 23 24 25 25 26 26 26 27 28 28 29 29 30 31 31 32 33 35 36 38 39 40 42 43 44 46 47 49 50 52 54 55 56 58 60 61 62 63 64 64 64 62 63 62 60 65 71 70 68 68 68 70 71 71 71 70 69 69 67 66 62 57 56 58 58 58 62 65 66 67 69 71 72 75 79 81 83 85 87 88 91 93
17 18 19 20 22 23 23 24 24 25 25 26 26 27 27 28 29 29 30 31 32 34 35 36 38 39 41 42 43 45 46 48 49 51 52 54 55 57 58 59 61 61 63 64 63 64 63 61 60 57 53 57 63 64 64 66 67 69 68 67 67 66 64 63 61 61 60 57 58 60 61 62 64 65 67 69 72 75 77 80 83 85 85 88 91 92 94 96
18 20 20 21 22 23 23 24 24 24 25 25 26 26 27 28 29 30 31 32 33 35 36 38 39 41 43 44 45 47 48 49 51 52 54 55 56 58 59 60 61 61 62 62 61 60 59 56 55 54 52 54 59 61 61 63 66 67 65 62 60 58 57 57 59 61 62 61 62 63 64 65 67 68 70 71 74 78 81 85 89 90 89 90 92 95 97 98
Wind_Direction
237 237 237 237 237 237 238 239 240 241 242 242 243 243 242 243 243 244 245 246 248 249 250 252 253 255 256 257 258 260 261 263 265 266 267 268 269 270 271 272 274 275 276 277 278 279 280 281 282 283 283 284 284 285 286 287 288 289 291 293 295 296 297 298 299 299 299 299 299 298 299 300 302 304 306 307 307 307 307 307 307 307 307 307 307 307 308 307
240 241 241 240 239 239 239 240 241 241 242 243 244 244 244 245 245 245 246 247 248 249 250 251 253 255 256 257 259 260 262 263 265 266 267 268 269 270 271 273 274 275 276 277 279 280 280 281 282 283 283 284 285 286 288 289 291 293 295 296 297 298 299 299 299 299 298 298 298 298 300 302 305 306 307 307 307 307 307 308 308 307 307 307 307 308 308 307
239 240 241 241 241 241 241 241 242 243 244 245 245 246 246 247 247 247 247 248 249 249 250 251 252 254 256 257 259 260 262 263 264 266 267 268 269 270 272 273 274 275 276 278 279 280 280 281 282 283 284 285 286 288 290 293 295 297 298 298 299 299 299 299 298 297 297 297 299 300 303 305 306 306 306 306 307 307 307 307 307 307 307 307 308 308 308 308
237 239 241 242 243 244 244 245 245 246 246 246 247 247 248 249 249 249 249 249 250 250 251 251 252 254 256 257 258 259 261 262 264 265 266 267 268 270 271 273 274 275 276 277 278 280 281 282 282 284 285 287 289 291 294 296 298 300 300 300 300 299 298 297 297 297 297 299 302 304 305 305 305 305 306 306 306 306 306 306 306 307 308 308 308 308 309 309
239 242 244 247 248 249 250 250 250 250 250 249 249 248 249 249 250 250 250 250 250 250 251 252 253 254 255 257 258 259 260 261 262 263 265 266 268 270 271 272 274 275 276 278 280 281 282 283 285 286 288 290 293 295 298 299 301 302 301 300 299 298 297 296 296 298 300 302 304 305 305 305 305 305 305 305 305 305 305 305 306 308 308 308 308 309 309 310
244 246 249 251 253 254 255 255 254 254 253 252 251 250 249 249 249 249 249 250 250 251 251 252 253 254 255 256 258 259 260 261 262 263 265 266 268 269 271 273 274 276 278 279 281 282 283 285 287 289 291 293 296 298 301 302 302 301 300 299 297 296 296 296 298 301 303 305 306 305 304 304 304 304 304 304 304 304 305 306 308 309 308 308 309 310 310 310
247 249 252 254 255 257 258 258 259 258 257 256 255 253 251 248 247 247 247 248 249 249 250 250 251 252 253 255 256 257 259 260 261 263 265 266 268 270 271 273 275 277 279 280 282 284 286 288 290 292 294 296 298 301 302 302 301 300 298 296 295 296 297 299 302 303 304 305 304 304 303 302 303 303 304 304 305 306 307 309 309 309 309 309 310 311 311 311
250 252 254 255 257 258 259 260 261 261 261 260 260 258 255 250 247 245 245 245 246 247 248 248 248 249 251 253 255 257 259 260 262 264 265 267 269 271 273 275 277 278 280 282 284 286 288 290 292 294 296 298 300 301 301 300 299 297 295 294 294 297 300 302 303 304 304 304 303 303 302 302 303 305 305 306 307 309 310 310 310 310 310 311 311 311 311 311
253 254 255 256 257 258 260 261 262 263 264 264 263 261 258 254 250 246 244 243 242 243 245 245 246 247 249 251 253 256 258 261 263 266 268 269 271 272 274 275 277 279 282 284 286 288 290 292 294 296 297 298 299 299 299 297 296 294 293 293 296 299 301 302 303 303 303 303 303 303 304 304 305 306 307 308 310 311 311 311 310 311 311 311 311 311 311 310
256 257 258 258 259 259 260 262 263 264 266 266 264 262 260 257 253 249 245 244 242 241 241 243 245 247 249 251 254 257 260 263 265 268 269 270 271 273 275 277 279 282 284 286 288 290 292 294 295 295 296 297 297 297 296 295 293 293 293 295 297 299 301 302 302 302 302 303 302 303 305 306 307 307 308 310 312 312 311 311 310 311 311 310 310 310 310 310
261 262 263 262 262 261 262 264 265 267 267 267 265 263 261 258 253 248 244 241 241 241 241 243 245 248 252 255 259 262 264 266 268 269 270 272 273 275 278 280 282 285 287 289 291 292 293 293 294 294 295 295 295 295 294 293 292 293 295 297 298 300 301 302 302 302 302 302 303 304 306 307 307 308 310 312 312 311 311 310 311 311 310 309 309 309 309 309
264 264 264 265 265 266 266 267 268 269 269 268 266 264 262 259 252 247 242 237 236 240 244 248 251 254 257 260 262 265 267 267 268 268 270 273 275 278 280 283 285 288 291 293 293 293 293 293 293 293 294 294 294 292 291 292 293 295 297 298 299 301 302 302 302 302 302 304 305 306 306 307 308 310 311 311 311 310 310 311 311 311 310 309 309 309 309 309
264 265 266 267 268 269 269 269 269 270 269 268 266 265 260 253 244 239 238 236 236 240 244 246 247 249 250 253 258 262 263 264 264 265 267 271 274 277 281 284 288 291 293 293 293 292 292 292 292 293 293 292 291 290 290 292 294 296 298 299 299 301 302 302 302 303 304 306 306 306 306 308 309 311 311 310 310 310 311 312 311 311 310 310 310 310 310 310
266 268 269 270 270 271 271 270 269 269 268 267 264 260 253 242 233 232 234 229 223 226 230 230 233 237 240 244 250 254 257 260 262 264 267 271 274 278 282 286 289 291 291 291 291 290 291 291 292 292 291 290 288 289 290 292 295 297 298 299 300 301 301 302 303 304 305 305 304 305 307 309 310 311 310 310 310 311 312 313 312 312 311 311 311 311 311 312
269 271 271 272 272 273 272 271 269 267 265 263 258 253 243 227 217 221 229 221 216 220 226 229 232 237 241 244 249 253 256 260 263 266 269 273 276 280 284 287 289 290 289 288 288 288 290 291 290 289 287 287 287 288 290 293 296 297 298 299 300 300 301 303 304 304 304 303 303 305 308 310 311 311 310 310 311 312 313 313 313 312 312 312 312 312 313 314
272 273 273 274 274 274 273 270 266 261 257 253 247 240 234 221 207 204 213 219 223 226 229 232 236 240 244 249 253 256 259 263 266 269 272 276 279 282 286 289 290 288 286 286 287 289 290 289 287 285 284 284 286 288 291 294 296 297 298 299 300 301 302 303 302 302 303 304 305 307 309 310 311 311 311 311 312 314 314 313 313 313 313 313 313 314 315 315
274 275 276 276 276 275 272 267 259 251 245 241 234 221 214 217 217 212 214 219 223 227 230 234 238 243 248 253 257 261 264 268 270 273 276 278 280 285 290 291 288 285 285 286 288 289 288 286 284 283 283 284 286 290 293 295 297 298 299 300 301 301 301 301 301 302 304 306 307 308 309 311 311 311 311 312 313 314 314 314 314 313 313 314 315 315 316 316
277 278 278 278 277 275 268 259 249 240 235 233 227 216 209 212 217 221 224 227 227 229 233 237 242 247 253 257 262 266 268 270 272 274 276 279 283 289 291 288 284 284 285 287 288 287 286 284 283 284 285 288 291 294 296 297 297 298 299 300 301 301 301 302 303 305 306 308 309 309 310 311 311 312 312 312 313 314 315 314 314 314 314 315 316 316 317 317
281 280 280 279 277 271 260 248 239 233 229 226 221 216 214 214 217 223 231 237 238 238 240 245 250 254 257 260 263 265 268 270 272 275 278 283 287 289 287 283 283 285 286 286 285 283 282 282 283 285 288 292 295 296 296 296 297 299 300 301 301 303 304 304 305 307 308 309 310 310 310 311 312 312 312 312 313 314 315 315 314 314 315 316 317 317 317 317
284 283 281 279 276 264 249 238 231 228 223 220 223 224 224 226 228 231 236 239 240 242 245 249 252 254 256 258 261 265 268 271 275 280 284 287 286 284 282 283 284 286 286 284 281 279 278 279 282 285 289 292 294 294 295 297 299 300 301 302 303 304 305 305 306 308 309 310 310 310 310 311 312 312 312 313 314 314 314 314 315 315 316 316 317 317 317 317
287 285 282 279 274 257 240 231 226 226 217 205 212 226 234 236 236 236 236 236 238 241 243 245 247 251 255 259 263 267 271 276 281 285 285 283 281 281 282 285 286 286 283 280 278 277 278 279 282 285 288 291 293 295 297 299 301 302 303 304 304 305 305 306 307 308 309 309 309 309 310 310 311 312 312 313 313 314 314 314 315 316 316 317 317 317 317 318
288 286 282 278 268 252 237 224 216 222 225 209 202 209 221 229 231 231 232 233 235 238 240 243 247 253 258 263 267 271 276 281 284 283 280 278 280 282 285 287 287 284 280 277 277 277 279 281 284 287 290 293 295 297 299 301 302 303 303 304 304 304 305 306 306 307 308 308 308 309 309 310 310 311 312 313 313 314 314 315 315 316 316 316 316 317 317 317
287 283 278 270 259 248 236 221 206 205 218 221 215 212 214 220 226 228 229 231 233 238 242 247 252 257 263 268 272 276 280 281 279 275 276 278 281 284 286 287 285 281 277 277 277 279 281 283 286 289 293 295 297 299 300 302 302 303 303 303 303 304 304 305 306 306 306 307 307 308 309 309 310 312 312 313 313 314 314 315 316 316 316 316 317 317 317 317
286 279 272 263 251 244 237 227 216 204 204 212 222 225 222 222 226 229 231 234 238 243 247 251 256 261 266 271 275 279 279 276 273 273 276 280 283 286 287 286 282 278 276 276 278 280 283 285 288 291 294 296 298 299 300 301 301 302 302 302 303 303 304 305 306 306 307 307 308 309 310 310 311 312 313 312 313 314 315 315 315 316 316 316 317 317 316 316
286 280 270 259 247 240 237 231 224 213 207 208 213 222 227 228 230 232 235 239 242 247 251 255 259 264 268 273 276 277 275 273 273 274 277 281 285 287 286 282 278 276 276 277 279 281 284 287 290 293 295 297 298 298 299 299 300 301 302 302 303 303 304 305 306 306 307 308 308 309 310 311 311 312 312 312 313 314 314 314 315 315 316 316 316 316 315 316
287 281 270 257 247 239 235 231 224 217 214 214 215 217 223 228 231 234 238 242 245 249 253 257 262 267 271 272 273 272 273 273 274 276 280 285 288 287 283 280 277 275 276 278 280 283 286 289 291 294 295 296 297 298 298 299 300 301 302 302 303 304 304 305 306 307 307 308 309 309 310 311 311 311 312 313 313 313 313 314 314 315 316 316 315 315 315 316
286 281 270 255 246 237 232 229 226 221 218 220 223 223 225 230 234 237 240 243 247 251 254 259 266 271 271 269 268 271 272 274 275 279 284 289 289 285 281 278 277 277 278 279 282 284 286 289 291 293 294 295 296 297 298 300 301 301 301 302 303 304 305 306 307 308 308 309 310 310 311 311 311 311 312 312 312 312 313 314 315 315 315 315 315 315 316 316
283 279 273 256 243 235 229 227 226 225 223 223 226 228 231 236 239 242 245 247 251 255 258 262 266 269 268 266 269 273 275 276 279 283 288 291 288 282 279 277 276 277 279 281 283 285 287 289 291 292 294 296 297 298 299 300 301 301 302 303 304 305 306 307 308 308 309 310 311 311 311 311 312 311 311 311 311 312 313 314 315 315 315 315 315 315 316 317
277 274 273 264 246 233 227 225 226 227 226 226 229 233 238 244 247 247 248 251 255 258 261 263 264 267 267 265 270 277 279 280 282 286 291 291 285 280 277 276 276 278 280 282 284 286 288 290 292 294 295 296 298 299 300 301 301 302 303 304 305 306 307 307 308 309 310 310 311 311 311 311 310 310 310 310 311 312 313 314 315 315 315 315 315 316 317 318
274 268 269 267 256 239 228 224 225 228 229 230 233 239 244 249 250 251 250 252 256 259 262 262 264 269 267 265 272 280 282 283 285 290 292 288 281 278 277 276 278 279 282 284 286 288 289 291 293 294 296 297 298 300 301 302 302 303 304 305 306 306 307 308 308 309 310 310 310 310 310 309 309 309 309 310 311 312 314 315 315 316 316 315 316 317 318 319
275 267 264 266 262 251 235 225 223 226 230 233 237 242 246 250 253 255 255 254 256 258 259 260 265 269 267 267 276 283 283 284 288 292 291 284 280 278 277 277 279 281 283 285 287 289 290 292 293 295 297 298 299 300 301 302 302 303 305 306 306 307 307 308 308 309 310 310 309 309 309 309 308 309 310 311 312 314 315 315 316 316 316 316 316 318 319 319
273 268 264 263 263 258 245 231 224 223 226 230 236 241 246 249 251 253 253 253 255 257 258 262 266 267 267 272 279 282 283 285 291 293 288 281 279 277 277 278 280 282 284 285 287 289 291 292 294 296 298 299 300 300 301 302 303 304 305 306 306 306 307 307 307 308 309 309 309 309 309 309 309 311 312 313 314 315 316 316 316 316 316 316 317 318 319 319
271 267 264 262 262 259 252 240 228 223 223 225 231 236 241 244 245 246 248 250 254 258 261 262 263 266 270 275 280 281 282 287 293 291 285 280 278 277 277 278 280 281 283 285 288 290 293 294 296 297 298 299 300 300 301 302 303 305 305 306 306 306 306 306 306 307 307 309 310 310 310 310 311 313 314 314 316 316 316 316 316 316 316 316 317 318 319 318
271 267 264 262 260 257 254 246 233 225 224 225 228 233 238 241 242 244 248 252 256 258 260 260 264 269 273 276 278 279 283 289 292 288 283 280 278 277 278 279 281 282 284 287 289 292 295 296 297 298 298 299 300 301 302 303 304 305 305 306 307 307 306 307 307 307 308 310 312 312 313 312 312 314 315 316 317 317 316 316 316 315 316 316 318 318 318 318
272 269 266 263 261 258 253 247 237 229 227 228 230 234 238 241 244 247 251 254 256 257 259 263 269 272 273 274 276 280 285 290 290 285 282 280 278 278 279 280 282 284 286 289 291 293 296 297 298 298 299 300 301 301 302 303 304 305 306 307 307 307 307 307 308 309 310 312 313 314 314 312 312 315 316 316 317 316 316 315 315 315 316 317 318 318 317 317
272 270 268 264 261 259 253 247 241 235 233 233 234 236 238 241 245 250 253 256 258 259 262 267 269 269 271 273 277 283 288 289 286 283 282 280 279 279 280 282 284 286 288 290 292 294 296 298 298 298 299 300 301 302 303 304 305 306 306 306 306 307 307 308 309 310 310 312 314 314 314 312 312 315 316 315 316 315 314 315 314 315 317 318 318 317 316 318
273 271 269 266 263 259 253 247 243 242 241 241 240 241 242 245 248 252 256 259 260 262 264 265 266 267 270 275 281 286 288 286 283 282 281 280 280 280 282 284 286 288 290 292 294 295 296 298 298 298 299 301 302 303 304 305 306 306 306 306 306 307 307 308 310 311 310 312 313 314 316 313 311 315 315 314 316 315 314 315 316 316 317 318 318 316 317 319
273 271 270 268 264 260 253 246 243 242 245 247 248 247 248 249 251 254 257 259 260 261 263 264 266 269 273 280 285 286 284 283 282 282 281 280 281 282 284 286 288 290 292 292 294 295 296 298 299 300 300 302 303 304 305 305 306 306 306 306 307 307 308 309 310 311 310 312 313 315 318 314 311 315 316 314 316 316 315 317 317 317 317 318 317 316 317 319
271 271 270 268 264 260 254 248 243 241 244 248 251 251 252 253 254 255 256 258 260 262 264 266 269 273 278 283 284 282 281 282 282 281 280 281 283 284 286 287 289 291 292 293 295 296 297 298 300 300 301 302 303 304 305 305 306 306 306 307 307 308 309 310 311 312 311 313 314 317 322 316 312 316 316 315 318 317 317 319 318 317 317 318 318 317 318 319
270 271 271 266 262 259 255 250 245 242 244 248 251 253 254 255 256 257 258 259 261 264 267 270 273 277 280 281 280 280 281 281 281 281 281 282 284 285 287 289 290 292 293 294 295 296 298 299 300 300 301 302 303 303 304 305 305 306 307 307 307 308 309 310 312 313 313 314 314 318 324 317 313 317 316 316 320 319 318 320 318 317 317 318 319 318 318 320
269 271 269 265 261 259 256 252 248 246 247 249 253 255 256 258 258 259 260 262 265 268 271 274 276 278 278 279 279 280 281 281 281 281 282 284 285 287 288 290 291 292 293 295 296 297 298 299 300 300 301 302 303 303 304 305 306 307 307 307 308 309 309 310 313 314 314 315 315 319 324 318 315 316 315 317 321 320 319 320 317 317 318 319 320 319 319 320
269 271 269 267 266 264 261 259 256 253 252 253 255 256 258 260 261 263 265 267 269 271 273 275 276 278 278 279 280 281 281 281 282 283 284 286 287 288 289 290 292 293 294 295 296 297 298 299 299 300 301 302 302 303 304 305 307 308 308 307 308 309 309 311 314 315 315 316 315 318 321 318 316 315 315 319 322 320 320 319 317 318 319 320 321 319 319 321
269 271 271 270 271 270 269 268 267 263 261 260 260 261 262 263 265 266 268 270 271 273 275 276 278 279 280 280 280 281 282 283 284 286 286 287 288 289 290 291 292 293 294 295 296 297 298 298 299 299 301 303 303 304 305 307 308 308 308 308 308 308 310 312 315 316 316 316 315 316 318 318 316 314 316 321 322 320 320 318 317 319 319 321 321 320 320 320
268 272 272 272 273 274 275 276 275 272 270 268 267 267 268 268 269 270 271 273 275 277 278 279 279 280 280 280 281 282 283 284 286 287 288 289 289 290 291 292 293 293 294 295 296 297 298 299 299 300 301 302 303 304 306 307 308 308 308 307 308 308 311 313 315 316 315 315 315 314 315 319 316 314 317 321 320 320 320 318 318 319 320 321 322 321 320 320
267 272 275 275 276 278 279 279 277 276 275 274 273 273 273 273 274 274 275 277 278 279 279 279 279 280 280 281 283 284 285 286 287 287 288 289 290 291 292 293 293 294 295 296 297 298 299 300 301 302 303 303 303 304 305 307 308 308 308 307 307 309 312 314 315 315 314 314 314 313 315 320 317 314 318 320 320 321 320 317 318 319 320 321 322 321 320 320
272 276 279 281 282 283 283 281 280 279 278 277 278 278 278 278 278 278 278 278 278 278 278 279 279 280 281 283 285 286 287 288 288 288 289 290 290 291 293 293 294 295 296 297 298 299 301 301 302 303 305 305 305 306 307 309 310 309 308 307 307 310 313 315 315 315 313 313 315 314 317 321 318 315 318 319 319 321 320 317 317 318 319 320 321 321 320 320
276 280 283 285 285 284 283 282 282 283 283 283 282 282 281 280 279 279 279 278 278 278 278 279 280 282 284 285 287 288 289 289 289 290 290 291 291 292 293 294 295 296 297 298 299 300 302 302 303 305 307 307 307 308 310 311 311 309 308 307 308 311 314 316 316 315 313 314 317 319 320 320 318 319 322 321 320 322 320 318 317 317 318 319 320 321 320 319
277 280 282 283 283 284 284 284 285 285 285 284 282 281 280 279 278 279 278 278 278 278 279 281 282 284 285 287 288 289 290 291 291 292 292 293 293 294 295 295 296 297 298 299 300 301 303 304 305 307 309 308 307 309 310 311 311 309 307 307 309 313 316 317 316 315 314 317 321 323 322 321 321 323 325 322 321 322 321 318 316 316 317 319 320 320 319 319
279 281 283 284 285 285 286 286 285 284 283 282 282 281 280 280 279 279 279 279 280 280 281 283 285 286 287 289 290 291 291 292 293 294 294 295 295 296 296 297 297 299 300 301 302 303 305 308 308 310 312 310 308 309 310 310 310 309 307 308 312 316 317 317 316 315 316 320 323 323 323 323 323 324 324 322 321 321 320 318 316 316 318 319 320 319 319 319
282 284 285 286 286 286 286 285 284 283 283 282 282 281 281 281 280 280 281 281 282 283 284 285 286 288 289 290 291 292 293 293 294 294 295 295 296 297 298 298 299 300 301 303 305 306 309 311 311 312 313 310 308 309 310 310 310 308 308 311 315 317 318 317 317 317 319 323 324 323 324 324 323 323 323 322 321 321 320 318 316 316 318 319 319 319 319 319
284 286 287 287 286 285 285 284 284 284 284 284 283 283 283 283 283 283 284 284 285 286 287 288 289 289 290 291 292 293 294 294 295 295 296 296 297 298 299 300 301 303 304 306 307 309 310 312 311 312 313 311 308 308 309 309 308 308 310 314 316 318 319 319 320 320 321 324 324 322 323 323 322 321 322 322 322 322 321 319 316 317 319 319 319 319 318 318
287 288 289 288 287 286 286 286 286 286 286 286 286 286 286 286 286 286 286 287 288 288 289 289 290 290 292 293 294 294 295 296 297 297 298 299 300 301 302 303 305 306 306 307 309 309 310 311 311 311 312 309 306 306 308 308 308 309 314 317 319 320 322 323 322 320 320 322 322 321 322 322 321 321 322 322 323 322 321 319 316 317 319 319 318 318 317 317
Height
10739 10740 10741 10742 10743 10744 10744 10745 10745 10746 10747 10747 10748 10749 10751 10752 10754 10755 10756 10757 10758 10759 10760 10761 10761 10762 10764 10764 10764 10765 10765 10765 10765 10764 10764 10763 10762 10762 10761 10761 10760 10758 10758 10757 10756 10755 10754 10752 10751 10750 10749 10747 10746 10745 10743 10740 10738 10735 10733 10730 10728 10725 10723 10721 10718 10715 10712 10710 10708 10704 10701 10700 10698 10695 10693 10691 10689 10687 10685 10683 10681 10678 10675 10672 10669 10666 10663 10660
10736 10737 10738 10739 10740 10741 10741 10742 10742 10743 10744 10744 10745 10746 10748 10749 10751 10752 10753 10754 10755 10756 10757 10758 10758 10759 10760 10760 10761 10762 10762 10762 10762 10761 10760 10759 10759 10758 10757 10757 10756 10755 10754 10753 10752 10751 10750 10749 10747 10746 10745 10743 10742 10740 10738 10735 10732 10730 10727 10725 10723 10720 10718 10716 10714 10711 10708 10706 10705 10702 10698 10696 10694 10692 10690 10688 10686 10684 10682 10679 10677 10674 10672 10668 10665 10662 10659 10656
10734 10735 10736 10737 10738 10738 10739 10739 10740 10740 10741 10741 10742 10743 10745 10746 10747 10748 10749 10750 10751 10752 10753 10755 10755 10756 10757 10758 10759 10759 10759 10758 10758 10757 10756 10755 10755 10755 10754 10753 10752 10751 10751 10750 10749 10748 10746 10745 10744 10742 10741 10739 10737 10735 10733 10731 10728 10725 10723 10720 10718 10716 10714 10712 10709 10707 10704 10703 10701 10698 10695 10693 10691 10689 10687 10685 10683 10680 10678 10676 10673 10671 10668 10664 10661 10657 10654 10650
10731 10732 10733 10734 10735 10736 10736 10737 10737 10737 10737 10737 10739 10740 10741 10742 10743 10744 10745 10746 10747 10748 10749 10751 10752 10754 10755 10755 10755 10755 10755 10755 10754 10753 10752 10752 10752 10751 10751 10750 10749 10748 10747 10747 10746 10744 10743 10741 10740 10738 10737 10735 10733 10731 10729 10727 10724 10721 10718 10716 10714 10712 10710 10708 10705 10703 10700 10699 10697 10694 10692 10690 10689 10687 10684 10682 10680 10677 10675 10673 10670 10667 10664 10661 10657 10653 10649 10645
10729 10730 10731 10731 10732 10733 10733 10734 10734 10734 10734 10734 10736 10737 10738 10739 10739 10739 10741 10742 10742 10744 10746 10748 10749 10750 10751 10751 10751 10751 10751 10751 10750 10749 10749 10749 10748 10748 10747 10746 10745 10744 10744 10743 10742 10741 10739 10737 10736 10734 10733 10731 10729 10727 10725 10723 10720 10718 10714 10711 10709 10707 10705 10704 10702 10699 10696 10694 10693 10690 10688 10686 10685 10684 10682 10679 10677 10675 10672 10669 10666 10663 10660 10656 10653 10648 10644 10640
10727 10728 10728 10729 10729 10730 10730 10730 10731 10731 10731 10731 10733 10734 10735 10735 10734 10735 10736 10737 10739 10740 10742 10744 10745 10746 10746 10747 10747 10747 10747 10747 10746 10746 10746 10745 10745 10744 10743 10742 10741 10741 10740 10739 10738 10737 10735 10734 10732 10730 10729 10727 10725 10723 10720 10718 10716 10714 10710 10707 10705 10703 10701 10699 10698 10696 10693 10691 10689 10687 10684 10682 10682 10680 10679 10676 10674 10672 10669 10665 10662 10659 10655 10651 10647 10643 10639 10634
10725 10725 10726 10726 10727 10727 10727 10727 10728 10728 10728 10728 10729 10730 10730 10730 10731 10732 10733 10734 10735 10736 10738 10739 10741 10741 10742 10743 10743 10743 10743 10743 10742 10742 10742 10741 10740 10740 10739 10739 10738 10737 10737 10736 10734 10733 10731 10730 10728 10726 10725 10723 10721 10719 10716 10714 10712 10710 10707 10704 10701 10699 10697 10695 10694 10692 10690 10688 10686 10684 10681 10679 10678 10677 10675 10672 10670 10667 10664 10661 10657 10653 10649 10645 10641 10637 10633 10628
10722 10723 10723 10724 10724 10724 10724 10725 10725 10724 10725 10725 10726 10726 10726 10727 10728 10728 10729 10730 10731 10732 10734 10736 10737 10738 10739 10739 10739 10739 10739 10739 10739 10738 10738 10738 10737 10736 10736 10735 10735 10734 10733 10732 10731 10729 10727 10726 10724 10722 10720 10719 10717 10715 10712 10710 10708 10706 10704 10701 10698 10696 10694 10692 10690 10689 10687 10685 10683 10682 10679 10676 10674 10673 10670 10668 10665 10662 10659 10655 10651 10647 10643 10639 10635 10631 10627 10623
10720 10720 10721 10721 10722 10722 10722 10722 10722 10721 10722 10722 10723 10723 10723 10723 10724 10725 10726 10727 10728 10729 10730 10732 10733 10734 10735 10736 10736 10736 10736 10736 10736 10735 10735 10734 10733 10733 10732 10732 10731 10730 10729 10728 10726 10725 10723 10722 10720 10718 10717 10715 10713 10711 10709 10706 10704 10702 10701 10698 10696 10694 10692 10690 10688 10686 10684 10682 10679 10678 10676 10672 10669 10668 10665 10662 10660 10656 10653 10649 10645 10641 10637 10633 10629 10625 10621 10617
10718 10718 10719 10719 10719 10719 10719 10719 10719 10719 10719 10719 10720 10720 10720 10720 10721 10722 10723 10724 10725 10726 10727 10729 10730 10731 10732 10733 10733 10733 10733 10733 10733 10732 10732 10731 10730 10730 10729 10729 10728 10727 10726 10724 10723 10721 10719 10718 10716 10714 10713 10711 10709 10707 10705 10703 10700 10698 10697 10695 10694 10692 10690 10688 10686 10684 10682 10680 10677 10674 10672 10669 10665 10663 10660 10657 10654 10651 10647 10644 10640 10636 10632 10628 10624 10620 10616 10611
10716 10716 10716 10716 10716 10716 10716 10716 10716 10716 10716 10716 10717 10717 10717 10717 10718 10719 10720 10721 10723 10724 10725 10727 10728 10729 10730 10730 10730 10731 10730 10730 10730 10730 10729 10728 10727 10727 10726 10725 10724 10723 10722 10721 10719 10718 10716 10714 10713 10711 10709 10707 10705 10703 10701 10699 10697 10695 10694 10692 10691 10690 10688 10686 10684 10682 10679 10677 10674 10671 10669 10667 10663 10659 10656 10652 10649 10646 10643 10639 10635 10631 10626 10622 10618 10614 10610 10605
10714 10714 10713 10713 10713 10713 10714 10714 10713 10713 10713 10713 10713 10714 10714 10714 10715 10716 10717 10719 10720 10722 10723 10725 10726 10727 10728 10728 10728 10728 10728 10728 10728 10727 10726 10726 10725 10724 10723 10722 10721 10720 10719 10717 10715 10714 10712 10711 10709 10708 10706 10704 10702 10700 10698 10696 10694 10692 10690 10689 10687 10686 10685 10683 10681 10679 10676 10673 10671 10668 10665 10663 10659 10655 10652 10648 10645 10641 10638 10634 10629 10625 10621 10617 10612 10608 10603 10599
10711 10711 10711 10710 10710 10710 10711 10711 10710 10710 10710 10710 10711 10711 10711 10712 10713 10714 10715 10717 10719 10721 10723 10724 10725 10726 10726 10726 10726 10726 10726 10726 10725 10724 10724 10723 10722 10721 10720 10719 10718 10717 10716 10714 10712 10710 10709 10707 10706 10704 10702 10701 10699 10697 10695 10693 10691 10690 10688 10686 10684 10683 10681 10680 10678 10675 10673 10670 10667 10664 10661 10659 10656 10652 10648 10644 10641 10637 10633 10629 10624 10619 10615 10610 10606 10601 10596 10591
10709 10709 10708 10708 10707 10707 10708 10708 10707 10707 10707 10707 10708 10708 10709 10710 10711 10712 10714 10716 10719 10721 10722 10723 10724 10724 10724 10724 10724 10724 10723 10722 10722 10721 10721 10720 10719 10718 10718 10717 10715 10714 10712 10710 10709 10707 10706 10704 10703 10701 10699 10698 10696 10694 10693 10691 10689 10687 10685 10683 10681 10680 10678 10676 10674 10671 10670 10667 10664 10661 10657 10653 10651 10647 10644 10640 10636 10632 10627 10623 10618 10613 10608 10603 10599 10594 10589 10583
10707 10706 10705 10705 10704 10704 10704 10704 10704 10704 10704 10704 10705 10706 10707 10708 10709 10712 10714 10716 10718 10719 10719 10720 10721 10721 10721 10721 10721 10720 10720 10719 10719 10718 10718 10717 10716 10716 10715 10714 10712 10710 10709 10707 10706 10704 10703 10701 10700 10698 10697 10695 10693 10692 10690 10688 10686 10684 10683 10681 10679 10676 10674 10671 10669 10667 10666 10664 10661 10657 10653 10649 10645 10641 10637 10634 10630 10626 10621 10616 10612 10607 10601 10597 10592 10587 10581 10576
10704 10703 10703 10702 10701 10701 10701 10701 10701 10701 10700 10701 10702 10703 10705 10707 10709 10711 10714 10714 10715 10716 10716 10717 10718 10718 10718 10718 10718 10717 10717 10717 10716 10716 10715 10714 10714 10713 10712 10711 10709 10707 10705 10704 10703 10701 10700 10698 10697 10695 10694 10692 10691 10689 10687 10686 10684 10682 10680 10678 10676 10673 10670 10668 10665 10663 10661 10659 10656 10652 10649 10645 10641 10636 10631 10627 10624 10619 10615 10610 10605 10600 10595 10590 10585 10580 10574 10568
10701 10700 10699 10698 10697 10697 10697 10697 10697 10697 10698 10699 10700 10702 10704 10706 10708 10710 10710 10711 10712 10713 10714 10715 10715 10715 10716 10715 10715 10715 10714 10714 10713 10713 10712 10711 10711 10710 10709 10707 10706 10704 10702 10701 10699 10698 10696 10695 10694 10692 10691 10690 10688 10686 10684 10683 10681 10679 10677 10674 10672 10670 10667 10664 10662 10659 10655 10653 10650 10645 10643 10640 10636 10631 10626 10621 10618 10613 10609 10604 10599 10593 10588 10583 10578 10573 10567 10561
10698 10697 10696 10695 10694 10694 10693 10693 10694 10695 10696 10697 10699 10701 10702 10704 10706 10707 10707 10709 10710 10711 10712 10713 10713 10713 10713 10713 10713 10712 10712 10711 10711 10710 10709 10708 10708 10707 10705 10704 10703 10701 10700 10698 10696 10694 10693 10691 10690 10689 10687 10686 10684 10683 10681 10679 10677 10675 10673 10670 10668 10666 10664 10660 10656 10654 10650 10647 10644 10639 10636 10633 10630 10626 10620 10616 10612 10607 10602 10597 10592 10587 10581 10576 10571 10566 10560 10554
10695 10693 10693 10691 10691 10691 10690 10691 10692 10693 10695 10696 10698 10700 10701 10702 10704 10705 10706 10707 10709 10709 10710 10711 10711 10711 10711 10711 10710 10710 10709 10709 10708 10707 10706 10705 10704 10703 10702 10701 10700 10698 10697 10695 10693 10692 10690 10689 10687 10686 10684 10683 10681 10679 10678 10676 10674 10671 10669 10666 10663 10660 10658 10655 10651 10648 10644 10640 10637 10633 10629 10627 10623 10619 10614 10610 10606 10601 10596 10591 10585 10580 10575 10570 10565 10559 10553 10547
10691 10690 10690 10689 10688 10689 10689 10690 10691 10692 10694 10696 10697 10699 10700 10701 10703 10704 10705 10706 10707 10707 10708 10708 10709 10709 10708 10708 10708 10707 10707 10706 10705 10704 10703 10702 10701 10700 10699 10698 10697 10695 10694 10692 10690 10689 10688 10686 10685 10683 10682 10680 10679 10677 10675 10673 10670 10668 10665 10662 10659 10655 10652 10650 10646 10643 10639 10635 10631 10627 10623 10620 10617 10613 10608 10604 10599 10595 10589 10584 10579 10573 10568 10563 10558 10552 10546 10541
10688 10687 10687 10686 10686 10687 10688 10689 10690 10691 10693 10695 10697 10699 10699 10700 10701 10702 10703 10704 10705 10705 10706 10706 10706 10706 10706 10706 10705 10705 10704 10703 10702 10701 10700 10699 10698 10697 10696 10695 10694 10692 10690 10689 10688 10686 10685 10684 10682 10680 10679 10677 10675 10673 10671 10669 10666 10663 10661 10657 10655 10652 10648 10645 10642 10639 10636 10632 10627 10623 10617 10614 10612 10608 10603 10598 10593 10588 10583 10578 10572 10566 10561 10556 10551 10546 10540 10534
10686 10685 10685 10684 10685 10686 10687 10688 10689 10691 10693 10694 10696 10698 10699 10699 10700 10700 10701 10702 10703 10703 10704 10704 10704 10704 10703 10703 10703 10702 10701 10701 10700 10698 10697 10696 10695 10694 10693 10692 10690 10689 10687 10686 10685 10683 10682 10681 10679 10677 10676 10674 10672 10669 10667 10665 10662 10659 10657 10654 10651 10648 10644 10641 10638 10635 10633 10629 10625 10620 10614 10608 10606 10603 10597 10592 10587 10582 10577 10571 10566 10560 10555 10550 10544 10539 10533 10527
10683 10683 10683 10683 10683 10684 10685 10687 10688 10690 10692 10694 10695 10696 10697 10698 10698 10699 10699 10700 10700 10701 10701 10702 10702 10701 10701 10701 10700 10699 10699 10698 10697 10696 10695 10694 10693 10691 10690 10689 10687 10685 10684 10683 10681 10680 10679 10677 10676 10674 10672 10670 10668 10666 10663 10661 10659 10656 10653 10650 10647 10644 10641 10637 10633 10630 10628 10626 10623 10619 10612 10603 10600 10597 10590 10585 10581 10576 10571 10565 10560 10555 10549 10543 10538 10532 10526 10520
10681 10681 10681 10681 10682 10682 10683 10685 10686 10688 10689 10691 10693 10693 10694 10695 10696 10696 10697 10698 10698 10698 10699 10699 10699 10699 10699 10698 10698 10697 10696 10695 10695 10694 10692 10691 10690 10689 10687 10686 10684 10682 10681 10680 10678 10677 10676 10674 10672 10671 10669 10667 10665 10662 10660 10658 10655 10653 10650 10647 10644 10640 10638 10634 10630 10625 10622 10619 10616 10615 10611 10599 10592 10591 10585 10579 10575 10570 10565 10559 10554 10549 10543 10537 10531 10525 10519 10513
10678 10678 10679 10679 10680 10680 10681 10683 10684 10685 10686 10688 10689 10690 10691 10692 10693 10693 10694 10695 10696 10696 10697 10697 10697 10697 10697 10696 10695 10695 10694 10693 10692 10691 10690 10689 10687 10686 10684 10682 10681 10680 10678 10677 10675 10674 10672 10671 10669 10667 10665 10663 10661 10659 10657 10655 10652 10650 10646 10643 10640 10637 10633 10630 10626 10622 10617 10614 10609 10607 10607 10599 10588 10585 10581 10573 10569 10564 10559 10554 10548 10543 10538 10531 10525 10519 10512 10507
10676 10676 10677 10677 10678 10678 10679 10681 10683 10684 10685 10685 10686 10687 10688 10689 10690 10691 10692 10693 10693 10694 10695 10695 10695 10695 10694 10694 10693 10692 10691 10690 10690 10689 10687 10686 10684 10683 10681 10679 10678 10677 10675 10674 10672 10671 10669 10668 10666 10664 10662 10660 10658 10656 10653 10651 10649 10646 10643 10640 10636 10632 10629 10625 10621 10617 10612 10609 10605 10600 10599 10596 10585 10579 10575 10568 10562 10558 10553 10549 10543 10538 10531 10525 10519 10512 10506 10500
10674 10673 10675 10676 10676 10676 10677 10679 10680 10682 10683 10684 10684 10685 10686 10686 10687 10689 10690 10690 10691 10692 10692 10692 10692 10692 10691 10691 10690 10690 10689 10688 10687 10686 10684 10683 10681 10679 10678 10676 10675 10674 10672 10671 10669 10668 10666 10664 10662 10660 10659 10656 10654 10652 10649 10647 10644 10642 10639 10636 10632 10628 10624 10620 10616 10612 10607 10603 10599 10594 10590 10590 10581 10573 10569 10562 10556 10551 10546 10542 10537 10531 10525 10518 10511 10505 10499 10493
10672 10671 10672 10674 10674 10674 10675 10676 10678 10680 10681 10682 10683 10683 10683 10684 10686 10687 10688 10689 10689 10690 10690 10690 10690 10689 10689 10688 10688 10687 10686 10685 10684 10683 10681 10680 10678 10676 10675 10673 10672 10671 10669 10668 10666 10664 10663 10661 10659 10657 10655 10653 10650 10648 10645 10643 10640 10637 10634 10631 10627 10623 10619 10615 10611 10606 10601 10596 10593 10587 10582 10582 10576 10567 10563 10557 10550 10545 10540 10534 10530 10524 10518 10511 10504 10498 10492 10486
10671 10670 10669 10671 10672 10672 10673 10674 10675 10677 10679 10680 10681 10681 10682 10683 10684 10685 10686 10686 10687 10687 10687 10687 10687 10687 10686 10686 10685 10684 10683 10682 10681 10680 10678 10676 10675 10673 10672 10670 10669 10668 10666 10665 10663 10661 10660 10658 10656 10654 10651 10649 10646 10644 10641 10638 10635 10632 10629 10626 10622 10619 10614 10610 10606 10601 10596 10590 10586 10581 10575 10573 10570 10562 10556 10551 10545 10540 10535 10528 10522 10517 10510 10503 10497 10491 10485 10479
10669 10669 10668 10668 10669 10670 10671 10672 10673 10674 10676 10678 10679 10680 10681 10682 10682 10683 10683 10684 10684 10684 10684 10684 10684 10684 10684 10683 10682 10681 10680 10679 10678 10677 10675 10673 10671 10670 10669 10667 10666 10665 10663 10662 10660 10658 10656 10654 10652 10650 10648 10645 10643 10640 10637 10634 10631 10627 10624 10621 10617 10613 10609 10605 10601 10596 10592 10585 10579 10575 10568 10563 10562 10558 10551 10545 10539 10534 10529 10523 10515 10509 10502 10495 10489 10484 10478 10472
10667 10667 10667 10666 10667 10668 10669 10669 10670 10672 10674 10676 10677 10678 10679 10679 10680 10680 10681 10681 10682 10681 10681 10681 10682 10681 10681 10680 10680 10678 10677 10676 10675 10673 10671 10670 10668 10667 10665 10664 10662 10661 10660 10658 10657 10655 10653 10651 10649 10646 10644 10642 10639 10636 10633 10629 10626 10623 10620 10616 10612 10608 10605 10600 10596 10592 10587 10581 10573 10568 10563 10555 10552 10551 10545 10539 10534 10528 10523 10517 10510 10502 10495 10487 10482 10477 10471 10465
10665 10665 10665 10664 10664 10665 10666 10667 10668 10669 10671 10673 10675 10676 10677 10677 10677 10678 10678 10679 10679 10678 10679 10679 10679 10679 10678 10677 10677 10675 10674 10673 10671 10670 10668 10666 10665 10663 10662 10661 10659 10658 10656 10655 10653 10651 10649 10647 10645 10642 10640 10637 10635 10632 10629 10625 10621 10618 10614 10611 10607 10604 10600 10596 10592 10588 10583 10577 10568 10562 10556 10549 10544 10542 10537 10532 10527 10521 10515 10509 10502 10495 10487 10480 10474 10470 10465 10457
10663 10663 10663 10662 10662 10662 10663 10664 10666 10667 10669 10671 10673 10674 10675 10675 10675 10675 10676 10676 10676 10676 10676 10677 10676 10676 10675 10675 10673 10672 10671 10669 10668 10666 10665 10663 10662 10660 10658 10657 10656 10654 10653 10651 10650 10647 10645 10642 10640 10638 10635 10633 10630 10627 10624 10620 10616 10613 10608 10605 10601 10597 10594 10591 10587 10583 10579 10574 10564 10556 10549 10542 10538 10535 10530 10525 10520 10514 10507 10500 10493 10487 10480 10473 10467 10463 10457 10450
10661 10661 10660 10660 10660 10660 10661 10662 10664 10666 10667 10669 10670 10671 10672 10672 10673 10673 10674 10674 10674 10674 10674 10674 10674 10673 10673 10671 10670 10669 10667 10666 10664 10662 10661 10659 10658 10657 10655 10654 10652 10650 10649 10647 10646 10644 10641 10638 10635 10633 10631 10628 10625 10622 10619 10615 10611 10607 10602 10599 10595 10589 10585 10582 10579 10575 10573 10571 10562 10551 10542 10533 10531 10530 10523 10519 10514 10506 10500 10493 10485 10479 10473 10467 10461 10455 10450 10444
10659 10659 10658 10658 10658 10658 10659 10660 10662 10664 10665 10667 10668 10669 10670 10670 10670 10671 10671 10671 10671 10671 10671 10671 10671 10670 10669 10668 10667 10666 10664 10663 10660 10659 10658 10656 10654 10653 10651 10650 10648 10646 10645 10643 10642 10640 10637 10634 10630 10628 10626 10623 10620 10616 10613 10610 10606 10602 10597 10592 10588 10583 10578 10574 10570 10565 10562 10563 10558 10550 10539 10525 10522 10524 10517 10511 10508 10499 10492 10486 10478 10472 10467 10461 10455 10448 10443 10437
10658 10657 10657 10657 10656 10657 10657 10658 10660 10661 10663 10664 10665 10666 10667 10668 10668 10668 10668 10669 10669 10669 10669 10668 10668 10667 10666 10665 10663 10662 10660 10659 10657 10655 10654 10652 10651 10649 10648 10646 10644 10642 10641 10639 10637 10635 10634 10630 10626 10623 10621 10618 10615 10611 10607 10603 10600 10596 10590 10586 10582 10578 10572 10567 10564 10558 10553 10554 10552 10547 10538 10520 10513 10519 10512 10504 10502 10493 10486 10481 10473 10467 10462 10456 10449 10442 10436 10432
10656 10656 10655 10655 10655 10655 10656 10657 10658 10659 10660 10662 10663 10664 10664 10665 10666 10666 10666 10666 10666 10666 10666 10665 10664 10664 10663 10661 10660 10658 10657 10655 10653 10652 10650 10648 10647 10646 10644 10642 10640 10638 10636 10634 10633 10630 10629 10627 10621 10618 10616 10613 10609 10605 10601 10597 10593 10589 10583 10578 10574 10571 10567 10561 10557 10552 10545 10545 10545 10542 10537 10516 10504 10513 10508 10498 10496 10487 10479 10474 10467 10461 10455 10450 10443 10435 10430 10426
10655 10654 10654 10654 10654 10654 10654 10655 10656 10657 10658 10659 10660 10661 10662 10662 10663 10663 10663 10663 10663 10663 10662 10662 10661 10660 10659 10658 10656 10654 10653 10651 10650 10648 10647 10645 10644 10642 10640 10638 10636 10634 10632 10630 10628 10626 10624 10623 10617 10612 10609 10607 10603 10598 10595 10590 10586 10582 10576 10571 10566 10562 10560 10555 10550 10544 10536 10536 10535 10537 10535 10511 10493 10502 10500 10491 10489 10481 10473 10468 10460 10454 10448 10442 10437 10429 10423 10420
10653 10653 10653 10653 10652 10653 10653 10654 10655 10655 10656 10656 10657 10658 10659 10660 10660 10660 10660 10660 10660 10660 10659 10658 10658 10657 10656 10654 10653 10651 10649 10648 10646 10645 10643 10641 10640 10638 10636 10634 10632 10630 10628 10625 10624 10621 10619 10618 10614 10607 10603 10601 10597 10592 10589 10584 10580 10575 10569 10563 10558 10554 10551 10548 10544 10537 10527 10524 10521 10526 10532 10508 10485 10490 10489 10482 10482 10474 10467 10463 10454 10447 10441 10435 10431 10424 10418 10414
10652 10652 10651 10652 10652 10652 10652 10652 10653 10654 10654 10655 10655 10656 10656 10657 10657 10657 10657 10657 10657 10656 10656 10655 10654 10653 10652 10650 10649 10647 10646 10644 10643 10641 10640 10638 10636 10634 10632 10630 10628 10626 10623 10621 10619 10616 10614 10612 10609 10603 10597 10595 10591 10586 10582 10578 10573 10569 10562 10555 10550 10546 10543 10540 10539 10531 10521 10516 10509 10513 10523 10504 10480 10481 10478 10473 10474 10466 10459 10456 10448 10440 10435 10429 10424 10418 10413 10408
10651 10650 10651 10651 10651 10651 10651 10651 10651 10652 10652 10653 10653 10654 10654 10654 10654 10654 10654 10654 10653 10653 10652 10651 10650 10649 10648 10646 10645 10644 10642 10641 10639 10638 10636 10634 10633 10631 10628 10626 10624 10622 10619 10616 10613 10611 10609 10607 10604 10599 10593 10589 10585 10580 10576 10572 10567 10562 10556 10548 10542 10538 10534 10531 10532 10527 10518 10511 10501 10502 10512 10499 10476 10472 10469 10466 10466 10457 10450 10447 10441 10434 10428 10423 10419 10412 10406 10402
10649 10649 10650 10650 10650 10650 10650 10650 10650 10651 10651 10651 10651 10652 10652 10652 10652 10651 10651 10651 10650 10649 10648 10648 10647 10645 10644 10643 10642 10640 10639 10637 10635 10634 10633 10630 10628 10627 10624 10622 10620 10617 10615 10612 10609 10605 10603 10601 10598 10594 10588 10583 10578 10574 10570 10566 10561 10556 10548 10540 10534 10530 10525 10522 10522 10520 10514 10507 10497 10495 10503 10495 10475 10465 10462 10460 10458 10449 10442 10437 10432 10428 10423 10418 10414 10407 10400 10396
10649 10649 10649 10649 10649 10649 10649 10649 10649 10650 10650 10650 10650 10650 10650 10649 10649 10649 10648 10648 10647 10646 10645 10644 10643 10642 10641 10640 10638 10637 10636 10634 10631 10629 10628 10626 10624 10622 10620 10617 10615 10612 10610 10607 10604 10600 10598 10595 10592 10589 10585 10578 10571 10566 10563 10560 10555 10549 10541 10533 10527 10522 10519 10516 10514 10511 10506 10501 10492 10486 10491 10491 10475 10460 10455 10454 10450 10443 10434 10428 10425 10422 10418 10413 10409 10402 10395 10390
10648 10648 10648 10648 10648 10648 10648 10648 10648 10648 10648 10648 10648 10648 10648 10647 10647 10646 10646 10645 10644 10643 10642 10641 10640 10639 10638 10636 10635 10633 10632 10631 10628 10625 10623 10622 10620 10617 10615 10613 10610 10607 10604 10602 10599 10595 10593 10589 10585 10583 10582 10576 10569 10561 10557 10554 10550 10543 10534 10526 10520 10515 10512 10511 10508 10503 10498 10494 10488 10478 10479 10484 10472 10455 10450 10448 10442 10437 10428 10420 10416 10414 10410 10407 10403 10396 10389 10383
10647 10647 10647 10647 10647 10647 10647 10647 10647 10647 10647 10647 10646 10646 10645 10645 10644 10643 10643 10642 10641 10640 10639 10638 10636 10635 10634 10632 10631 10629 10628 10627 10625 10622 10619 10618 10615 10613 10610 10608 10604 10602 10599 10596 10593 10590 10588 10583 10577 10575 10573 10570 10565 10559 10554 10551 10546 10538 10529 10520 10514 10510 10508 10504 10501 10496 10489 10487 10484 10472 10469 10477 10469 10452 10446 10441 10433 10430 10422 10413 10408 10404 10401 10399 10396 10390 10382 10375
10647 10647 10647 10647 10646 10646 10646 10646 10646 10646 10645 10645 10644 10644 10643 10642 10641 10640 10640 10639 10638 10636 10635 10634 10633 10632 10630 10629 10627 10625 10624 10622 10621 10619 10616 10613 10611 10608 10605 10602 10599 10596 10593 10590 10587 10585 10583 10578 10571 10568 10565 10560 10555 10551 10548 10545 10541 10532 10522 10513 10508 10506 10504 10499 10494 10489 10481 10478 10479 10469 10460 10465 10463 10451 10445 10439 10431 10426 10419 10410 10404 10398 10393 10391 10388 10383 10375 10367
10646 10646 10646 10645 10645 10645 10645 10645 10644 10644 10643 10642 10642 10641 10640 10639 10638 10637 10636 10635 10634 10633 10632 10631 10629 10628 10626 10625 10624 10622 10620 10618 10616 10614 10612 10609 10606 10603 10600 10597 10594 10591 10588 10585 10582 10579 10578 10574 10567 10563 10560 10553 10546 10542 10539 10536 10533 10525 10515 10506 10502 10500 10499 10494 10487 10481 10474 10470 10471 10466 10456 10452 10451 10446 10440 10434 10428 10424 10417 10407 10399 10394 10388 10384 10380 10375 10366 10358
10645 10645 10644 10644 10644 10643 10643 10643 10642 10641 10640 10640 10639 10638 10637 10636 10635 10634 10633 10632 10631 10630 10628 10627 10626 10624 10623 10621 10620 10618 10616 10613 10611 10609 10607 10604 10601 10598 10595 10592 10589 10586 10582 10579 10576 10573 10572 10570 10564 10560 10556 10546 10537 10535 10532 10528 10524 10517 10506 10498 10497 10495 10492 10488 10481 10473 10468 10464 10461 10459 10453 10444 10439 10438 10434 10426 10420 10417 10412 10402 10393 10386 10382 10377 10372 10366 10358 10349
10644 10643 10643 10643 10642 10641 10641 10640 10639 10639 10638 10637 10636 10635 10634 10633 10631 10630 10629 10628 10627 10626 10625 10623 10622 10621 10619 10617 10616 10614 10611 10609 10606 10604 10601 10598 10595 10592 10590 10586 10583 10580 10576 10573 10570 10566 10565 10564 10559 10556 10554 10543 10530 10526 10525 10520 10516 10509 10498 10491 10491 10490 10484 10480 10474 10466 10461 10460 10455 10451 10448 10440 10431 10429 10427 10420 10413 10408 10403 10394 10384 10377 10372 10368 10363 10356 10347 10340
10642 10642 10641 10641 10640 10639 10638 10638 10637 10636 10635 10634 10633 10631 10630 10629 10628 10627 10626 10624 10623 10622 10621 10620 10618 10617 10615 10613 10611 10609 10607 10604 10602 10599 10596 10593 10590 10587 10584 10580 10577 10574 10570 10567 10564 10560 10558 10557 10553 10550 10550 10540 10526 10520 10517 10512 10507 10501 10494 10489 10486 10483 10478 10472 10466 10460 10455 10455 10451 10445 10443 10438 10429 10423 10418 10413 10406 10400 10395 10386 10376 10369 10364 10358 10353 10347 10338 10330
10641 10640 10639 10638 10638 10637 10636 10635 10634 10633 10631 10630 10629 10628 10627 10626 10624 10623 10622 10621 10620 10619 10617 10616 10614 10613 10611 10609 10607 10604 10602 10599 10597 10594 10591 10588 10585 10581 10578 10575 10572 10569 10565 10561 10559 10555 10551 10550 10546 10543 10543 10536 10523 10517 10512 10506 10499 10493 10491 10488 10483 10478 10473 10467 10460 10453 10449 10449 10446 10440 10437 10433 10427 10420 10415 10408 10400 10393 10386 10376 10366 10362 10359 10351 10342 10335 10328 10321
10639 10638 10637 10636 10635 10634 10633 10632 10631 10630 10628 10627 10626 10625 10624 10623 10621 10620 10619 10618 10617 10616 10614 10612 10610 10608 10606 10604 10602 10600 10597 10595 10592 10589 10585 10582 10579 10576 10573 10570 10566 10563 10560 10556 10553 10550 10545 10543 10539 10536 10535 10530 10519 10513 10509 10502 10494 10489 10487 10485 10480 10474 10469 10463 10455 10447 10444 10443 10440 10435 10431 10426 10420 10415 10410 10405 10397 10387 10378 10366 10354 10350 10351 10346 10336 10325 10317 10311